This is the latest recevied weather packets stored in our database for station/object W7JFO-3. If no packets are shown the sender has not sent any weather packets the latest 1 day(s).
| Time | Temp. | Humidity | Pressure | Rain* | Wind** | Luminosity | Snow |
|---|---|---|---|---|---|---|---|
| 1836274461 | 21.67° C | 40% | 1008.1 hPa | 0 mm | 1.79 m/s, 216° | 0 W/m² | - |
| 1778059902 | 5.56° C | 47% | 1014.3 hPa | 0 mm | 3.13 m/s, 130° | 0 W/m² | - |
| 1778059002 | 5.56° C | 47% | 1014.3 hPa | 0 mm | 2.24 m/s, 148° | 0 W/m² | - |
| 1778058102 | 5.56° C | 48% | 1014.3 hPa | 0 mm | 1.79 m/s, 185° | 0 W/m² | - |
| 1778057202 | 5.56° C | 48% | 1014.5 hPa | 0 mm | 4.92 m/s, 142° | 0 W/m² | - |
| 1778056302 | 6.11° C | 47% | 1014.5 hPa | 0 mm | 5.81 m/s, 142° | 0 W/m² | - |
| 1778055402 | 6.11° C | 46% | 1014.4 hPa | 0 mm | 5.81 m/s, 140° | 0 W/m² | - |
| 1778054502 | 6.11° C | 46% | 1014.1 hPa | 0 mm | 6.26 m/s, 135° | 0 W/m² | - |
| 1778053602 | 6.11° C | 47% | 1014.3 hPa | 0 mm | 5.36 m/s, 143° | 0 W/m² | - |
| 1778052702 | 6.11° C | 48% | 1014.4 hPa | 0 mm | 5.36 m/s, 144° | 0 W/m² | - |
| 1778051802 | 5.56° C | 49% | 1014.4 hPa | 0 mm | 5.81 m/s, 140° | 0 W/m² | - |
| 1778050902 | 6.11° C | 49% | 1014.5 hPa | 0 mm | 4.92 m/s, 140° | 0 W/m² | - |
| 1778050002 | 6.11° C | 49% | 1014.5 hPa | 0 mm | 4.47 m/s, 141° | 0 W/m² | - |
| 1778049102 | 6.11° C | 48% | 1014.4 hPa | 0 mm | 5.81 m/s, 142° | 0 W/m² | - |
| 1778048202 | 6.11° C | 48% | 1014.3 hPa | 0 mm | 6.26 m/s, 147° | 0 W/m² | - |
| 1778047302 | 6.67° C | 48% | 1014.1 hPa | 0 mm | 5.36 m/s, 126° | 0 W/m² | - |
| 1778046402 | 6.67° C | 47% | 1014 hPa | 0 mm | 5.36 m/s, 132° | 0 W/m² | - |
| 1778045502 | 6.67° C | 47% | 1014.3 hPa | 0 mm | 5.81 m/s, 114° | 0 W/m² | - |
| 1778044602 | 7.22° C | 47% | 1014.5 hPa | 0 mm | 5.81 m/s, 141° | 0 W/m² | - |
| 1778043702 | 7.22° C | 46% | 1014.5 hPa | 0 mm | 7.15 m/s, 131° | 0 W/m² | - |
| 1778042802 | 7.22° C | 46% | 1014.4 hPa | 0 mm | 7.15 m/s, 153° | 0 W/m² | - |
| 1778041902 | 7.22° C | 47% | 1014.3 hPa | 0 mm | 6.71 m/s, 132° | 0 W/m² | - |
| 1778041002 | 7.22° C | 47% | 1014 hPa | 0 mm | 7.15 m/s, 111° | 0 W/m² | - |
| 1778040102 | 7.78° C | 47% | 1013.9 hPa | 0 mm | 6.71 m/s, 122° | 0 W/m² | - |
| 1778039202 | 7.78° C | 46% | 1013.7 hPa | 0 mm | 6.71 m/s, 95° | 0 W/m² | - |
* Rain latest hour (hover to see other rain measurements)
** Current wind speed in m/s (hover to see current wind gust speed)